Mobile, AL

10:00 AM CST on February 14, 2016 (GMT -0600)
Mobile Downtown

Weather History for KBFM - May, 2014

Change the Weather History Date:

Saturday, May 3, 2014

  Actual Average (KMOB) Record (KMOB)
Temperature  
Mean Temperature 66 °F 71 °F  
Max Temperature 81 °F 82 °F 90 °F (1952)
Min Temperature 54 °F 60 °F 47 °F (2004)
Cooling Degree Days 1 6  
Month to date cooling degree days 18  
Year to date cooling degree days 177  
Growing Degree Days 16 (Base 50)    
Moisture  
Dew Point 52 °F    
Average Humidity 58    
Maximum Humidity 87    
Minimum Humidity 30    
Precipitation  
Precipitation 0.00 in 0.15 in 5.97 in (1978)
Month to date precipitation 0.45  
Year to date precipitation 22.15  
Sea Level Pressure  
Sea Level Pressure 30.06 in    
Wind  
Wind Speed 4 mph (West)    
Max Wind Speed 9 mph    
Max Gust Speed -    
Visibility 10 miles    
Events      
T = Trace of Precipitation, MM = Missing Value Source: NWS Daily Summary

Daily Weather History Graph

Daily Weather History Graph

Search for Another Location

Airport or City:

Trip Planner

Search our weather history database for the weather conditions in past years. The results will help you decide how hot, cold, wet, or windy it might be!

Date:

Astronomy

May. 03, 2014 Rise Set
Actual Time 6:06 AM CDT 7:32 PM CDT
Civil Twilight 5:41 AM CDT 7:57 PM CDT
Nautical Twilight 5:10 AM CDT 8:28 PM CDT
Astronomical Twilight 4:38 AM CDT 9:00 PM CDT
Moon 9:39 AM CDT (5/3) 11:35 PM CDT (5/3)
Length of Visible Light 14h 16m
Length of Day
13h 25m
Waxing Crescent, 20% of the Moon is Illuminated
May 3
Waxing Crescent
May 6
First Quarter
May 14
Full
May 21
Last Quarter
May 28
New

Hourly Weather History & Observations

Time (CDT) Temp. Dew Point Humidity Pressure Visibility Wind Dir Wind Speed Gust Speed Precip Events Conditions
12:53 AM 61.0 °F 54.0 °F 78% 30.01 in 10.0 mi Calm Calm - N/A   Mostly Cloudy
1:53 AM 62.1 °F 53.1 °F 72% 30.00 in 10.0 mi NW 3.5 mph - N/A   Mostly Cloudy
2:53 AM 62.1 °F 52.0 °F 70% 30.02 in 10.0 mi West 3.5 mph - N/A   Clear
3:53 AM 57.0 °F 53.1 °F 87% 30.03 in 10.0 mi West 3.5 mph - N/A   Clear
4:53 AM 55.0 °F 48.9 °F 80% 30.02 in 10.0 mi WNW 4.6 mph - N/A   Clear
5:53 AM 54.0 °F 48.9 °F 83% 30.04 in 10.0 mi NW 4.6 mph - N/A   Clear
6:53 AM 57.0 °F 48.9 °F 74% 30.06 in 10.0 mi WNW 3.5 mph - N/A   Clear
7:53 AM 64.9 °F 52.0 °F 63% 30.07 in 10.0 mi NW 4.6 mph - N/A   Clear
8:53 AM 69.1 °F 50.0 °F 51% 30.09 in 10.0 mi West 3.5 mph - N/A   Clear
9:53 AM 73.9 °F 46.0 °F 37% 30.09 in 10.0 mi NNW 6.9 mph - N/A   Clear
10:53 AM 75.9 °F 44.1 °F 32% 30.11 in 10.0 mi NW 6.9 mph - N/A   Clear
11:53 AM 77.0 °F 43.0 °F 30% 30.10 in 10.0 mi Variable 3.5 mph - N/A   Clear
12:53 PM 78.1 °F 44.1 °F 30% 30.09 in 10.0 mi NNW 3.5 mph - N/A   Mostly Cloudy
1:53 PM 78.1 °F 50.0 °F 37% 30.08 in 10.0 mi ESE 9.2 mph - N/A   Scattered Clouds
3:53 PM 75.9 °F 52.0 °F 43% 30.04 in 10.0 mi SSE 8.1 mph - N/A   Scattered Clouds
4:53 PM 77.0 °F 55.9 °F 48% 30.04 in 10.0 mi SSE 9.2 mph - N/A   Clear
5:53 PM 75.9 °F 55.9 °F 50% 30.03 in 10.0 mi SSE 8.1 mph - N/A   Clear
6:53 PM 75.0 °F 52.0 °F 44% 30.04 in 10.0 mi Variable 3.5 mph - N/A   Clear
7:01 PM 73.9 °F 52.0 °F 46% 30.05 in 10.0 mi SSW 4.6 mph - N/A   Partly Cloudy
7:53 PM 71.1 °F 53.1 °F 53% 30.07 in 10.0 mi WSW 3.5 mph - N/A   Clear
8:53 PM 68.0 °F 55.0 °F 63% 30.08 in 10.0 mi SW 4.6 mph - N/A   Clear
9:53 PM 66.9 °F 57.0 °F 70% 30.10 in 10.0 mi WSW 4.6 mph - N/A   Clear
10:53 PM 66.0 °F 57.9 °F 75% 30.11 in 10.0 mi WSW 4.6 mph - N/A   Clear
11:53 PM 66.0 °F 59.0 °F 78% 30.12 in 10.0 mi WSW 4.6 mph - N/A   Clear